カタログに戻る

ARIANE 44L+ DEB

LostGTO
NORAD 23240·DEBRIS·🇫🇷 France

打ち上げ Apr 15, 1992 から Guiana Space Centre

Loading…

TLE

古いSource: Space-Track

元期: Mar 31, 2026, 12:20 UTC

1 23240U 92021K   26090.51389738 -.00000163  00000-0  00000-0 0  9997
2 23240   3.2670 147.7587 6977190 200.4861 338.6119  2.23454445262071

AllMySatでARIANE 44L+ DEBをリアルタイム追跡

Download on the App Store